FFT2857 KLAX-KSFO

Flight info

Callsign FFT2857
Flight time 0h 53m
Altitude 36000
Route SUMMR2 STOKD SERFR SERFR4
Aircraft A321/M-SDE3FGHIRWY/LB1

Departure

Time 2026-04-21 23:29
Airport Los Angeles International Airport (KLAX)

Arrival

Time 2026-04-22 00:22
Airport San Francisco International Airport (KSFO)
Time Latitude Longitude Altitude Speed Heading
2026-04-21 22:57 33.94147 -118.41415 122 ft 0 kts 263°
2026-04-21 23:20 33.94148 -118.41405 121 ft 4 kts 265°
2026-04-21 23:20 33.94149 -118.41384 125 ft 4 kts 272°
2026-04-21 23:20 33.94146 -118.41351 121 ft 4 kts 285°
2026-04-21 23:21 33.94136 -118.41322 123 ft 4 kts 306°
2026-04-21 23:21 33.94117 -118.41302 123 ft 4 kts 344°
2026-04-21 23:21 33.94110 -118.41299 124 ft 0 kts 353°
2026-04-21 23:24 33.94140 -118.41304 122 ft 14 kts 353°
2026-04-21 23:24 33.94294 -118.41325 123 ft 25 kts 352°
2026-04-21 23:24 33.94457 -118.41350 122 ft 23 kts 353°
2026-04-21 23:24 33.94610 -118.41372 123 ft 21 kts 353°
2026-04-21 23:25 33.94739 -118.41391 124 ft 14 kts 353°
2026-04-21 23:25 33.94788 -118.41340 126 ft 10 kts 82°
2026-04-21 23:25 33.94803 -118.41197 123 ft 24 kts 83°
2026-04-21 23:25 33.94824 -118.40999 124 ft 23 kts 83°
2026-04-21 23:26 33.94843 -118.40806 126 ft 24 kts 83°
2026-04-21 23:26 33.94867 -118.40578 124 ft 29 kts 83°
2026-04-21 23:26 33.94890 -118.40347 123 ft 27 kts 83°
2026-04-21 23:26 33.94912 -118.40130 125 ft 24 kts 83°
2026-04-21 23:27 33.94927 -118.39992 125 ft 9 kts 83°
2026-04-21 23:27 33.94952 -118.39928 124 ft 8 kts 44°
2026-04-21 23:27 33.95014 -118.39915 123 ft 11 kts 351°
2026-04-21 23:27 33.95040 -118.39962 125 ft 0 kts 266°
2026-04-21 23:28 33.95038 -118.39983 122 ft 11 kts 264°
2026-04-21 23:28 33.94991 -118.40439 126 ft 99 kts 263°
2026-04-21 23:28 33.94876 -118.41565 122 ft 168 kts 263°
2026-04-21 23:28 33.94712 -118.43099 632 ft 187 kts 257°
2026-04-21 23:29 33.94553 -118.44632 1758 ft 182 kts 262°
2026-04-21 23:29 33.94408 -118.46151 2314 ft 188 kts 262°
2026-04-21 23:29 33.94295 -118.47807 2443 ft 210 kts 266°
2026-04-21 23:29 33.94231 -118.49671 2669 ft 234 kts 266°
2026-04-21 23:30 33.94159 -118.51669 3285 ft 243 kts 265°
2026-04-21 23:30 33.94025 -118.53710 4049 ft 246 kts 263°
2026-04-21 23:30 33.93867 -118.55767 4856 ft 249 kts 263°
2026-04-21 23:30 33.93698 -118.57857 5614 ft 252 kts 262°
2026-04-21 23:31 33.93526 -118.59971 6388 ft 255 kts 261°
2026-04-21 23:31 33.93352 -118.62111 7105 ft 258 kts 261°
2026-04-21 23:31 33.93178 -118.64276 7839 ft 261 kts 261°
2026-04-21 23:31 33.93004 -118.66455 8619 ft 263 kts 261°
2026-04-21 23:32 33.92832 -118.68649 9398 ft 263 kts 261°
2026-04-21 23:32 33.92662 -118.70848 10148 ft 265 kts 261°
2026-04-21 23:32 33.92482 -118.73132 10393 ft 285 kts 261°
2026-04-21 23:32 33.92284 -118.75596 10531 ft 307 kts 262°
2026-04-21 23:33 33.92071 -118.78239 10642 ft 327 kts 262°
2026-04-21 23:33 33.91848 -118.81042 10778 ft 346 kts 262°
2026-04-21 23:33 33.91702 -118.83991 11056 ft 359 kts 268°
2026-04-21 23:33 33.91810 -118.87016 11599 ft 363 kts 269°
2026-04-21 23:34 33.91910 -118.90059 12222 ft 364 kts 269°
2026-04-21 23:34 33.92002 -118.93111 12818 ft 366 kts 269°
2026-04-21 23:34 33.92089 -118.96175 13443 ft 367 kts 269°
2026-04-21 23:34 33.92249 -118.99205 14000 ft 370 kts 275°
2026-04-21 23:35 33.92868 -119.02237 14498 ft 377 kts 285°
2026-04-21 23:35 33.94026 -119.05150 15019 ft 385 kts 296°
2026-04-21 23:35 33.95450 -119.07888 15560 ft 387 kts 296°
2026-04-21 23:35 33.96879 -119.10640 16082 ft 388 kts 296°
2026-04-21 23:36 33.98306 -119.13404 16581 ft 389 kts 296°
2026-04-21 23:36 33.99750 -119.16172 17075 ft 392 kts 298°
2026-04-21 23:36 34.01501 -119.18740 17564 ft 402 kts 308°
2026-04-21 23:36 34.03665 -119.20942 18076 ft 413 kts 316°
2026-04-21 23:37 34.06024 -119.22946 18544 ft 415 kts 316°
2026-04-21 23:37 34.08390 -119.24963 18963 ft 417 kts 316°
2026-04-21 23:37 34.10753 -119.26995 19388 ft 418 kts 316°
2026-04-21 23:37 34.13089 -119.29016 19791 ft 419 kts 316°
2026-04-21 23:38 34.15464 -119.31074 20190 ft 421 kts 316°
2026-04-21 23:38 34.17884 -119.33168 20585 ft 423 kts 316°
2026-04-21 23:38 34.20256 -119.35212 20968 ft 425 kts 316°
2026-04-21 23:38 34.22703 -119.37322 21380 ft 428 kts 316°
2026-04-21 23:39 34.25130 -119.39415 21748 ft 430 kts 316°
2026-04-21 23:39 34.27537 -119.41489 22123 ft 432 kts 316°
2026-04-21 23:39 34.30019 -119.43631 22501 ft 433 kts 316°
2026-04-21 23:39 34.32477 -119.45755 22863 ft 435 kts 316°
2026-04-21 23:40 34.34913 -119.47864 23210 ft 437 kts 316°
2026-04-21 23:40 34.37388 -119.50014 23567 ft 439 kts 316°
2026-04-21 23:40 34.39872 -119.52180 23890 ft 440 kts 315°
2026-04-21 23:40 34.42178 -119.54559 24214 ft 432 kts 307°
2026-04-21 23:41 34.44283 -119.57153 24555 ft 432 kts 306°
2026-04-21 23:41 34.46396 -119.59754 24859 ft 434 kts 306°
2026-04-21 23:41 34.48521 -119.62364 25147 ft 435 kts 306°
2026-04-21 23:41 34.50646 -119.64971 25342 ft 435 kts 306°
2026-04-21 23:42 34.52773 -119.67583 25714 ft 435 kts 306°
2026-04-21 23:42 34.54893 -119.70188 26153 ft 434 kts 306°
2026-04-21 23:42 34.57007 -119.72793 26597 ft 432 kts 306°
2026-04-21 23:42 34.59111 -119.75389 27003 ft 431 kts 306°
2026-04-21 23:43 34.61209 -119.77980 27399 ft 429 kts 306°
2026-04-21 23:43 34.63296 -119.80558 27793 ft 428 kts 306°
2026-04-21 23:43 34.65377 -119.83133 28214 ft 427 kts 306°
2026-04-21 23:43 34.67452 -119.85702 28654 ft 425 kts 305°
2026-04-21 23:44 34.69518 -119.88257 29076 ft 423 kts 305°
2026-04-21 23:44 34.71575 -119.90806 29481 ft 421 kts 305°
2026-04-21 23:44 34.73623 -119.93352 29854 ft 421 kts 305°
2026-04-21 23:44 34.75663 -119.95894 30212 ft 419 kts 305°
2026-04-21 23:45 34.77701 -119.98429 30498 ft 419 kts 305°
2026-04-21 23:45 34.81761 -120.03482 31157 ft 416 kts 305°
2026-04-21 23:45 34.83780 -120.05998 31498 ft 415 kts 304°
2026-04-21 23:46 34.85791 -120.08506 31827 ft 414 kts 305°
2026-04-21 23:46 34.87803 -120.11012 32162 ft 413 kts 304°
2026-04-21 23:46 34.89807 -120.13509 32515 ft 411 kts 305°
2026-04-21 23:46 34.91799 -120.15993 32915 ft 409 kts 304°
2026-04-21 23:47 34.93784 -120.18475 33225 ft 408 kts 304°
2026-04-21 23:47 34.95760 -120.20950 33539 ft 407 kts 304°
2026-04-21 23:47 34.97734 -120.23424 33860 ft 407 kts 304°
2026-04-21 23:47 34.99705 -120.25897 34146 ft 406 kts 304°
2026-04-21 23:48 35.01673 -120.28363 34391 ft 406 kts 304°
2026-04-21 23:48 35.03640 -120.30834 34632 ft 405 kts 304°
2026-04-21 23:48 35.05603 -120.33302 34859 ft 405 kts 305°
2026-04-21 23:48 35.07566 -120.35769 35111 ft 405 kts 305°
2026-04-21 23:49 35.09542 -120.38226 35343 ft 406 kts 306°
2026-04-21 23:49 35.11586 -120.40621 35572 ft 408 kts 308°
2026-04-21 23:49 35.13679 -120.42958 35820 ft 408 kts 309°
2026-04-21 23:49 35.15797 -120.45270 36030 ft 408 kts 309°
2026-04-21 23:50 35.17913 -120.47573 36094 ft 408 kts 309°
2026-04-21 23:50 35.22158 -120.52261 36101 ft 415 kts 308°
2026-04-21 23:51 35.26430 -120.57065 36099 ft 418 kts 308°
2026-04-21 23:51 35.30715 -120.61892 36099 ft 419 kts 308°
2026-04-21 23:52 35.35000 -120.66725 36104 ft 419 kts 308°
2026-04-21 23:52 35.39289 -120.71559 36105 ft 419 kts 308°
2026-04-21 23:53 35.43572 -120.76392 36118 ft 419 kts 308°
2026-04-21 23:53 35.47855 -120.81243 36121 ft 420 kts 309°
2026-04-21 23:54 35.52491 -120.85670 36110 ft 418 kts 313°
2026-04-21 23:54 35.57113 -120.89943 36089 ft 415 kts 313°
2026-04-21 23:54 35.59417 -120.92077 35839 ft 414 kts 313°
2026-04-21 23:55 35.61716 -120.94211 35583 ft 414 kts 313°
2026-04-21 23:55 35.64008 -120.96344 35348 ft 413 kts 313°
2026-04-21 23:55 35.66298 -120.98470 35104 ft 411 kts 313°
2026-04-21 23:55 35.68576 -121.00589 34859 ft 410 kts 313°
2026-04-21 23:56 35.70847 -121.02707 34635 ft 410 kts 312°
2026-04-21 23:56 35.73118 -121.04829 34404 ft 409 kts 312°
2026-04-21 23:56 35.75383 -121.06946 34218 ft 408 kts 312°
2026-04-21 23:56 35.77639 -121.09057 33970 ft 407 kts 311°
2026-04-21 23:57 35.79895 -121.11169 33699 ft 407 kts 311°
2026-04-21 23:57 35.82150 -121.13279 33434 ft 407 kts 312°
2026-04-21 23:57 35.84406 -121.15393 33166 ft 407 kts 311°
2026-04-21 23:57 35.86662 -121.17508 32907 ft 408 kts 312°
2026-04-21 23:58 35.88892 -121.19595 32646 ft 408 kts 312°
2026-04-21 23:58 35.91151 -121.21711 32455 ft 408 kts 312°
2026-04-21 23:58 35.93413 -121.23835 32208 ft 409 kts 312°
2026-04-21 23:58 35.95671 -121.25958 31943 ft 407 kts 312°
2026-04-21 23:59 35.97920 -121.28069 31691 ft 406 kts 312°
2026-04-21 23:59 36.00166 -121.30181 31438 ft 406 kts 312°
2026-04-21 23:59 36.02413 -121.32296 31199 ft 406 kts 312°
2026-04-21 23:59 36.04655 -121.34414 30954 ft 406 kts 312°
2026-04-22 00:00 36.06916 -121.36518 30708 ft 410 kts 315°
2026-04-22 00:00 36.09337 -121.38431 30533 ft 414 kts 317°
2026-04-22 00:00 36.11774 -121.40323 30296 ft 414 kts 317°
2026-04-22 00:00 36.14214 -121.42215 30049 ft 414 kts 317°
2026-04-22 00:01 36.16654 -121.44113 29755 ft 414 kts 317°
2026-04-22 00:01 36.19094 -121.46016 29482 ft 415 kts 317°
2026-04-22 00:01 36.21534 -121.47926 29202 ft 415 kts 317°
2026-04-22 00:01 36.23979 -121.49840 28936 ft 416 kts 317°
2026-04-22 00:02 36.26426 -121.51756 28654 ft 417 kts 317°
2026-04-22 00:02 36.28875 -121.53672 28360 ft 415 kts 317°
2026-04-22 00:02 36.31312 -121.55577 27392 ft 415 kts 317°
2026-04-22 00:02 36.33755 -121.57493 26439 ft 416 kts 318°
2026-04-22 00:03 36.36205 -121.59418 25460 ft 419 kts 317°
2026-04-22 00:03 36.37867 -121.60726 24954 ft 418 kts 318°
2026-04-22 00:03 36.40282 -121.62612 24768 ft 401 kts 317°
2026-04-22 00:03 36.42596 -121.64411 24721 ft 384 kts 318°
2026-04-22 00:04 36.44812 -121.66137 24603 ft 368 kts 317°
2026-04-22 00:04 36.46943 -121.67803 24394 ft 356 kts 317°
2026-04-22 00:04 36.49009 -121.69433 24159 ft 348 kts 317°
2026-04-22 00:04 36.51038 -121.71048 23931 ft 345 kts 316°
2026-04-22 00:05 36.53057 -121.72664 23587 ft 345 kts 316°
2026-04-22 00:05 36.55065 -121.74269 23050 ft 342 kts 317°
2026-04-22 00:05 36.57063 -121.75862 22544 ft 342 kts 317°
2026-04-22 00:05 36.59068 -121.77450 22052 ft 342 kts 318°
2026-04-22 00:06 36.61089 -121.79049 21551 ft 347 kts 319°
2026-04-22 00:06 36.63132 -121.80671 21051 ft 348 kts 320°
2026-04-22 00:06 36.65167 -121.82287 20540 ft 346 kts 320°
2026-04-22 00:06 36.67195 -121.83897 20038 ft 346 kts 321°
2026-04-22 00:07 36.69225 -121.85508 19539 ft 346 kts 321°
2026-04-22 00:07 36.71260 -121.87122 19047 ft 347 kts 322°
2026-04-22 00:07 36.73345 -121.88660 18574 ft 351 kts 328°
2026-04-22 00:07 36.75631 -121.89792 18014 ft 357 kts 339°
2026-04-22 00:08 36.78060 -121.90517 17444 ft 360 kts 343°
2026-04-22 00:08 36.80505 -121.91193 16930 ft 360 kts 343°
2026-04-22 00:08 36.82945 -121.91869 16407 ft 359 kts 343°
2026-04-22 00:08 36.85383 -121.92547 15883 ft 359 kts 343°
2026-04-22 00:09 36.87817 -121.93227 15369 ft 358 kts 343°
2026-04-22 00:09 36.90269 -121.93911 14883 ft 364 kts 343°
2026-04-22 00:09 36.92718 -121.94595 14559 ft 357 kts 343°
2026-04-22 00:09 36.95129 -121.95277 14153 ft 354 kts 342°
2026-04-22 00:10 36.97504 -121.96068 13699 ft 352 kts 340°
2026-04-22 00:10 36.99836 -121.96960 13258 ft 349 kts 338°
2026-04-22 00:10 37.02138 -121.97896 12873 ft 346 kts 338°
2026-04-22 00:10 37.04407 -121.98834 12284 ft 339 kts 338°
2026-04-22 00:11 37.06641 -121.99743 11346 ft 336 kts 338°
2026-04-22 00:11 37.08842 -122.00620 10651 ft 326 kts 339°
2026-04-22 00:11 37.10934 -122.01439 10310 ft 304 kts 339°
2026-04-22 00:11 37.12920 -122.02211 9877 ft 296 kts 338°
2026-04-22 00:12 37.14863 -122.02970 9758 ft 291 kts 339°
2026-04-22 00:12 37.16794 -122.03728 9618 ft 290 kts 339°
2026-04-22 00:12 37.18713 -122.04481 9485 ft 285 kts 339°
2026-04-22 00:12 37.20581 -122.05213 9325 ft 279 kts 339°
2026-04-22 00:13 37.22429 -122.05939 8999 ft 278 kts 339°
2026-04-22 00:13 37.24265 -122.06660 8646 ft 275 kts 339°
2026-04-22 00:13 37.26087 -122.07376 8285 ft 274 kts 338°
2026-04-22 00:13 37.27895 -122.08084 7919 ft 271 kts 338°
2026-04-22 00:14 37.29687 -122.08787 7565 ft 269 kts 339°
2026-04-22 00:14 37.31468 -122.09490 7221 ft 269 kts 337°
2026-04-22 00:14 37.33248 -122.10200 6887 ft 267 kts 338°
2026-04-22 00:14 37.35015 -122.10899 6519 ft 266 kts 338°
2026-04-22 00:15 37.36772 -122.11592 6148 ft 263 kts 339°
2026-04-22 00:15 37.38507 -122.12260 5984 ft 261 kts 339°
2026-04-22 00:15 37.40276 -122.12888 5535 ft 266 kts 340°
2026-04-22 00:15 37.42050 -122.13487 5182 ft 261 kts 341°
2026-04-22 00:16 37.43752 -122.14048 4809 ft 247 kts 341°
2026-04-22 00:16 37.45432 -122.14608 3983 ft 251 kts 341°
2026-04-22 00:16 37.47108 -122.15160 3546 ft 245 kts 341°
2026-04-22 00:16 37.48740 -122.15692 3434 ft 239 kts 341°
2026-04-22 00:17 37.50311 -122.16205 3324 ft 229 kts 339°
2026-04-22 00:17 37.51826 -122.16699 3199 ft 221 kts 341°
2026-04-22 00:17 37.53176 -122.17455 3091 ft 205 kts 321°
2026-04-22 00:17 37.54128 -122.18639 3007 ft 181 kts 301°
2026-04-22 00:18 37.54708 -122.19938 2911 ft 165 kts 294°
2026-04-22 00:18 37.55242 -122.21197 2659 ft 161 kts 295°
2026-04-22 00:18 37.55766 -122.22427 2405 ft 158 kts 292°
2026-04-22 00:18 37.56271 -122.23624 2193 ft 153 kts 292°
2026-04-22 00:19 37.56764 -122.24792 2048 ft 147 kts 294°
2026-04-22 00:19 37.57243 -122.25929 1834 ft 145 kts 292°
2026-04-22 00:19 37.57711 -122.27047 1649 ft 143 kts 292°
2026-04-22 00:19 37.58179 -122.28155 1438 ft 144 kts 293°
2026-04-22 00:20 37.58645 -122.29270 1246 ft 143 kts 293°
2026-04-22 00:20 37.59111 -122.30381 1017 ft 142 kts 294°
2026-04-22 00:20 37.59575 -122.31473 808 ft 141 kts 293°
2026-04-22 00:20 37.60030 -122.32555 633 ft 141 kts 294°
2026-04-22 00:21 37.60488 -122.33643 436 ft 140 kts 295°
2026-04-22 00:21 37.60945 -122.34739 280 ft 141 kts 295°
2026-04-22 00:21 37.61404 -122.35834 59 ft 140 kts 296°
2026-04-22 00:21 37.61827 -122.36854 22 ft 117 kts 297°
2026-04-22 00:22 37.62069 -122.37426 22 ft 39 kts 298°
2026-04-22 00:22 37.62179 -122.37695 22 ft 35 kts 293°
2026-04-22 00:22 37.62233 -122.37957 22 ft 29 kts 268°
2026-04-22 00:22 37.62228 -122.38087 22 ft 0 kts 264°
2026-04-22 00:23 37.62226 -122.38106 25 ft 8 kts 264°
2026-04-22 00:23 37.62201 -122.38182 22 ft 9 kts 222°
2026-04-22 00:23 37.62149 -122.38221 23 ft 9 kts 209°
2026-04-22 00:23 37.62088 -122.38261 22 ft 10 kts 207°
2026-04-22 00:24 37.62028 -122.38294 23 ft 9 kts 182°
2026-04-22 00:24 37.61988 -122.38252 22 ft 8 kts 121°
2026-04-22 00:24 37.61947 -122.38155 23 ft 18 kts 118°
2026-04-22 00:24 37.61886 -122.38028 22 ft 15 kts 130°
2026-04-22 00:25 37.61790 -122.37957 22 ft 15 kts 165°
2026-04-22 00:25 37.61687 -122.37956 22 ft 14 kts 195°
2026-04-22 00:25 37.61598 -122.38009 23 ft 14 kts 208°
2026-04-22 00:25 37.61512 -122.38066 23 ft 14 kts 208°
2026-04-22 00:26 37.61432 -122.38119 22 ft 11 kts 208°
2026-04-22 00:26 37.61365 -122.38163 22 ft 11 kts 207°
2026-04-22 00:26 37.61300 -122.38206 22 ft 10 kts 207°
2026-04-22 00:26 37.61240 -122.38246 24 ft 9 kts 213°
2026-04-22 00:27 37.61217 -122.38302 24 ft 3 kts 253°
2026-04-22 00:27 37.61211 -122.38327 22 ft 3 kts 253°
2026-04-22 00:27 37.61202 -122.38350 22 ft 3 kts 234°
2026-04-22 00:27 37.61179 -122.38370 22 ft 4 kts 210°
2026-04-22 00:28 37.61158 -122.38385 22 ft 3 kts 206°
2026-04-22 00:28 37.61139 -122.38397 22 ft 4 kts 206°
2026-04-22 00:28 37.61112 -122.38415 24 ft 1 kts 211°
2026-04-22 00:28 37.61108 -122.38422 23 ft 2 kts 236°
2026-04-22 00:29 37.61114 -122.38441 22 ft 3 kts 294°
2026-04-22 00:29 37.61122 -122.38461 22 ft 3 kts 297°
2026-04-22 00:29 37.61128 -122.38475 24 ft 1 kts 298°
2026-04-22 00:29 37.61131 -122.38480 23 ft 0 kts 298°